| time (UTC) | temp F | wind direction | speed MPH | gust MPH | rain 1hr in | rain 24hr in | rain mn in | humidity % | barometer mb |
| 20260510075030 | 68 | 351 | 2.0 | 3.0 | 0.00 | 0.80 | 0.00 | 98 | 1012.9 |
| 20260510074030 | 68 | 355 | 0.0 | 2.0 | 0.00 | 0.82 | 0.00 | 98 | 1013.1 |
| 20260510073030 | 68 | 350 | 1.0 | 2.0 | 0.00 | 0.82 | 0.00 | 98 | 1013.1 |
| 20260510072030 | 68 | 338 | 1.0 | 2.0 | 0.00 | 0.82 | 0.00 | 98 | 1013.2 |
| 20260510071050 | 68 | 348 | 0.0 | 1.0 | 0.00 | 0.83 | 0.00 | 98 | 1013.3 |
| 20260510070030 | 69 | 340 | 0.0 | 2.0 | 0.00 | 0.83 | 0.00 | 98 | 1013.2 |
| 20260510065031 | 69 | 333 | 0.0 | 2.0 | 0.00 | 0.83 | 0.00 | 98 | 1013.3 |
| 20260510064032 | 69 | 338 | 1.0 | 2.0 | 0.00 | 0.89 | 0.00 | 98 | 1013.3 |
| 20260510063031 | 69 | 338 | 1.0 | 3.0 | 0.00 | 0.89 | 0.00 | 98 | 1013.4 |
| 20260510062031 | 69 | 360 | 1.0 | 2.0 | 0.00 | 0.89 | 0.00 | 98 | 1013.4 |
| 20260510061031 | 69 | 330 | 0.0 | 2.0 | 0.00 | 0.89 | 0.00 | 98 | 1013.6 |
| 20260510060031 | 69 | 0.0 | 0.0 | 0.00 | 0.89 | 0.00 | 98 | 1013.7 | |
| 20260510055031 | 69 | 334 | 0.0 | 1.0 | 0.00 | 0.89 | 0.00 | 98 | 1014.0 |
| 20260510054032 | 69 | 108 | 0.0 | 1.0 | 0.00 | 0.89 | 0.00 | 98 | 1014.1 |
| 20260510053018 | 69 | 0.0 | 0.0 | 0.00 | 0.89 | 0.00 | 98 | 1013.7 | |
| 20260510052017 | 69 | 0.0 | 0.0 | 0.00 | 0.89 | 0.00 | 98 | 1013.5 | |
| 20260510051017 | 69 | 56 | 0.0 | 1.0 | 0.00 | 0.89 | 0.00 | 98 | 1013.2 |
| 20260510050017 | 69 | 75 | 0.0 | 1.0 | 0.00 | 0.89 | 0.00 | 97 | 1013.4 |
| 20260510045017 | 69 | 0.0 | 0.0 | 0.00 | 0.89 | 0.89 | 97 | 1013.8 | |
| 20260510044033 | 69 | 20 | 0.0 | 2.0 | 0.00 | 0.89 | 0.89 | 97 | 1014.0 |
| 20260510043033 | 69 | 0.0 | 0.0 | 0.00 | 0.89 | 0.89 | 97 | 1014.2 | |
| 20260510042018 | 69 | 0.0 | 0.0 | 0.00 | 0.89 | 0.89 | 97 | 1014.2 | |
| 20260510041018 | 69 | 353 | 1.0 | 2.0 | 0.00 | 0.89 | 0.89 | 97 | 1014.2 |
| 20260510040019 | 69 | 321 | 0.0 | 0.0 | 0.00 | 0.88 | 0.88 | 97 | 1014.5 |
| 20260510035018 | 70 | 0.0 | 0.0 | 0.00 | 0.88 | 0.88 | 96 | 1014.5 | |
| 20260510034019 | 70 | 0.0 | 0.0 | 0.00 | 0.88 | 0.88 | 96 | 1014.3 | |
| 20260510033019 | 70 | 0.0 | 0.0 | 0.00 | 0.88 | 0.88 | 96 | 1014.3 | |
| 20260510032059 | 70 | 0.0 | 0.0 | 0.00 | 0.88 | 0.88 | 96 | 1014.3 | |
| 20260510031019 | 70 | 331 | 0.0 | 1.0 | 0.00 | 0.88 | 0.88 | 96 | 1014.1 |
| 20260510030019 | 70 | 0.0 | 0.0 | 0.00 | 0.89 | 0.88 | 96 | 1014.0 | |
| 20260510025040 | 71 | 346 | 0.0 | 2.0 | 0.00 | 0.89 | 0.88 | 96 | 1013.7 |
| 20260510024100 | 71 | 356 | 0.0 | 1.0 | 0.01 | 0.89 | 0.88 | 95 | 1013.5 |
| 20260510023020 | 71 | 18 | 0.0 | 3.0 | 0.01 | 0.90 | 0.88 | 95 | 1013.4 |
| 20260510022020 | 71 | 38 | 0.0 | 2.0 | 0.01 | 0.91 | 0.88 | 95 | 1013.5 |
| 20260510021020 | 71 | 56 | 0.0 | 2.0 | 0.01 | 0.92 | 0.88 | 95 | 1013.5 |
| 20260510020021 | 71 | 35 | 0.0 | 1.0 | 0.01 | 0.93 | 0.88 | 94 | 1013.8 |
| 20260510015020 | 71 | 178 | 0.0 | 2.0 | 0.01 | 0.94 | 0.88 | 94 | 1014.0 |
| 20260510014021 | 71 | 187 | 1.0 | 2.0 | 0.00 | 0.93 | 0.88 | 94 | 1014.0 |
| 20260510013021 | 71 | 170 | 1.0 | 2.0 | 0.00 | 0.93 | 0.88 | 93 | 1013.9 |
| 20260510012021 | 71 | 189 | 1.0 | 2.0 | 0.00 | 0.93 | 0.88 | 93 | 1014.2 |
| 20260510011021 | 71 | 234 | 0.0 | 1.0 | 0.00 | 0.93 | 0.88 | 93 | 1014.1 |
| 20260510010022 | 71 | 149 | 2.0 | 4.0 | 0.00 | 0.93 | 0.88 | 93 | 1013.5 |
| 20260510005022 | 70 | 155 | 2.0 | 6.0 | 0.00 | 0.93 | 0.88 | 94 | 1013.2 |
| 20260510004042 | 70 | 142 | 2.0 | 5.0 | 0.00 | 0.93 | 0.88 | 95 | 1013.2 |
| 20260510003022 | 70 | 107 | 2.0 | 4.0 | 0.00 | 0.95 | 0.87 | 96 | 1012.9 |
| 20260510002042 | 70 | 155 | 1.0 | 3.0 | 0.00 | 0.97 | 0.87 | 96 | 1012.9 |
| 20260510001022 | 70 | 241 | 0.0 | 1.0 | 0.01 | 0.99 | 0.87 | 96 | 1012.9 |
| 20260510000043 | 70 | 74 | 1.0 | 2.0 | 0.01 | 1.01 | 0.87 | 96 | 1012.9 |
| 20260509235022 | 70 | 54 | 0.0 | 1.0 | 0.01 | 1.02 | 0.87 | 95 | 1013.1 |
| 20260509234043 | 70 | 0.0 | 0.0 | 0.01 | 1.02 | 0.87 | 95 | 1013.2 | |
| 20260509233023 | 71 | 223 | 0.0 | 1.0 | 0.01 | 1.03 | 0.87 | 95 | 1013.2 |
| 20260509232023 | 71 | 0.0 | 0.0 | 0.01 | 1.03 | 0.87 | 95 | 1013.0 | |
| 20260509231024 | 71 | 348 | 1.0 | 2.0 | 0.01 | 1.03 | 0.87 | 94 | 1013.2 |
| 20260509230023 | 71 | 0.0 | 0.0 | 0.00 | 1.02 | 0.86 | 94 | 1013.1 | |
| 20260509225103 | 71 | 0.0 | 0.0 | 0.00 | 1.02 | 0.86 | 93 | 1013.1 | |
| 20260509224024 | 71 | 344 | 1.0 | 2.0 | 0.00 | 1.02 | 0.86 | 93 | 1012.8 |
| 20260509223024 | 71 | 9 | 0.0 | 1.0 | 0.00 | 1.02 | 0.86 | 92 | 1012.9 |
| 20260509222044 | 71 | 357 | 1.0 | 2.0 | 0.00 | 1.02 | 0.86 | 92 | 1012.9 |
| 20260509221024 | 72 | 348 | 0.0 | 1.0 | 0.00 | 1.02 | 0.86 | 92 | 1013.0 |
| 20260509220024 | 72 | 350 | 0.0 | 1.0 | 0.00 | 1.02 | 0.86 | 91 | 1012.9 |
| 20260509215125 | 72 | 171 | 0.0 | 1.0 | 0.00 | 1.02 | 0.86 | 91 | 1012.8 |
| 20260509214025 | 72 | 291 | 0.0 | 1.0 | 0.00 | 1.02 | 0.86 | 90 | 1013.0 |
| 20260509213025 | 72 | 326 | 0.0 | 1.0 | 0.00 | 1.02 | 0.86 | 89 | 1013.0 |
| 20260509212025 | 72 | 155 | 1.0 | 2.0 | 0.00 | 1.02 | 0.86 | 90 | 1012.6 |
| 20260509211025 | 72 | 360 | 1.0 | 3.0 | 0.00 | 1.02 | 0.86 | 90 | 1012.6 |
| 20260509210026 | 72 | 19 | 1.0 | 3.0 | 0.00 | 1.02 | 0.86 | 90 | 1012.6 |
| 20260509205025 | 71 | 206 | 1.0 | 2.0 | 0.00 | 1.02 | 0.86 | 90 | 1012.2 |
| 20260509204020 | 71 | 159 | 2.0 | 4.0 | 0.00 | 1.02 | 0.86 | 91 | 1011.7 |
| 20260509203020 | 71 | 160 | 3.0 | 8.0 | 0.00 | 1.02 | 0.86 | 91 | 1011.5 |
| 20260509202020 | 71 | 121 | 2.0 | 6.0 | 0.00 | 1.02 | 0.86 | 90 | 1011.0 |
| 20260509201041 | 71 | 135 | 3.0 | 7.0 | 0.00 | 1.02 | 0.86 | 90 | 1011.4 |
| 20260509200018 | 71 | 101 | 3.0 | 8.0 | 0.00 | 1.02 | 0.86 | 89 | 1011.4 |
| 20260509195018 | 72 | 106 | 2.0 | 7.0 | 0.00 | 1.02 | 0.86 | 88 | 1011.7 |
| 20260509194018 | 72 | 145 | 2.0 | 4.0 | 0.00 | 1.02 | 0.86 | 86 | 1011.6 |
| 20260509193022 | 71 | 96 | 2.0 | 6.0 | 0.00 | 1.02 | 0.86 | 86 | 1011.3 |
| 20260509192021 | 71 | 132 | 3.0 | 5.0 | 0.00 | 1.02 | 0.86 | 86 | 1011.0 |
| 20260509191021 | 71 | 88 | 3.0 | 6.0 | 0.00 | 1.02 | 0.86 | 87 | 1010.9 |
| 20260509190127 | 71 | 67 | 2.0 | 4.0 | 0.00 | 1.02 | 0.86 | 90 | 1010.8 |
| 20260509185027 | 71 | 75 | 1.0 | 2.0 | 0.01 | 1.02 | 0.86 | 90 | 1011.5 |
| 20260509184018 | 71 | 27 | 1.0 | 3.0 | 0.01 | 1.02 | 0.86 | 89 | 1011.9 |
| 20260509183019 | 70 | 14 | 1.0 | 5.0 | 0.01 | 1.02 | 0.86 | 90 | 1012.3 |
| 20260509182019 | 70 | 18 | 2.0 | 4.0 | 0.01 | 1.02 | 0.86 | 92 | 1012.6 |
| 20260509181021 | 69 | 22 | 2.0 | 6.0 | 0.01 | 1.02 | 0.86 | 95 | 1013.0 |
| 20260509180039 | 68 | 4 | 2.0 | 6.0 | 0.01 | 1.02 | 0.86 | 96 | 1013.2 |
| 20260509175028 | 67 | 354 | 2.0 | 5.0 | 0.01 | 1.02 | 0.85 | 98 | 1013.4 |
| 20260509174043 | 67 | 356 | 3.0 | 6.0 | 0.05 | 1.01 | 0.85 | 98 | 1013.7 |
| 20260509173023 | 67 | 357 | 3.0 | 6.0 | 0.10 | 1.01 | 0.85 | 99 | 1014.2 |
| 20260509172018 | 66 | 1 | 4.0 | 5.0 | 0.16 | 1.01 | 0.85 | 100 | 1014.7 |
| 20260509171017 | 66 | 353 | 3.0 | 7.0 | 0.19 | 1.01 | 0.85 | 99 | 1015.1 |
| 20260509170017 | 65 | 353 | 2.0 | 5.0 | 0.29 | 1.01 | 0.85 | 99 | 1015.4 |
| 20260509165023 | 65 | 359 | 3.0 | 6.0 | 0.44 | 1.01 | 0.84 | 98 | 1015.5 |
| 20260509164044 | 65 | 349 | 3.0 | 7.0 | 0.44 | 0.97 | 0.81 | 98 | 1015.3 |
| 20260509163017 | 65 | 355 | 4.0 | 8.0 | 0.60 | 0.91 | 0.75 | 98 | 1015.3 |
| 20260509162019 | 65 | 353 | 4.0 | 9.0 | 0.57 | 0.86 | 0.69 | 98 | 1015.3 |
| 20260509161018 | 65 | 358 | 4.0 | 7.0 | 0.53 | 0.82 | 0.66 | 98 | 1015.5 |
| 20260509160018 | 65 | 345 | 3.0 | 8.0 | 0.43 | 0.72 | 0.56 | 97 | 1015.3 |
| 20260509155018 | 66 | 356 | 4.0 | 8.0 | 0.28 | 0.57 | 0.40 | 97 | 1015.1 |
| 20260509154018 | 67 | 357 | 2.0 | 5.0 | 0.24 | 0.53 | 0.36 | 96 | 1015.1 |
| 20260509153030 | 69 | 341 | 2.0 | 5.0 | 0.02 | 0.31 | 0.15 | 96 | 1015.2 |
| 20260509152019 | 72 | 353 | 5.0 | 13.0 | 0.00 | 0.29 | 0.13 | 96 | 1014.7 |
| 20260509151030 | 74 | 351 | 1.0 | 4.0 | 0.00 | 0.29 | 0.13 | 96 | 1014.1 |
| 20260509150033 | 74 | 331 | 0.0 | 1.0 | 0.00 | 0.29 | 0.13 | 97 | 1013.9 |
| 20260509145053 | 73 | 357 | 1.0 | 3.0 | 0.00 | 0.29 | 0.13 | 97 | 1013.5 |
| 20260509144034 | 73 | 14 | 1.0 | 2.0 | 0.00 | 0.29 | 0.13 | 98 | 1013.2 |
| 20260509143031 | 73 | 47 | 0.0 | 1.0 | 0.00 | 0.29 | 0.13 | 98 | 1013.0 |
| 20260509142031 | 73 | 44 | 0.0 | 1.0 | 0.00 | 0.29 | 0.13 | 99 | 1013.0 |
| 20260509141017 | 73 | 104 | 2.0 | 3.0 | 0.00 | 0.29 | 0.13 | 99 | 1013.0 |
| 20260509140032 | 73 | 112 | 1.0 | 2.0 | 0.00 | 0.29 | 0.13 | 99 | 1013.0 |
| 20260509135037 | 73 | 84 | 1.0 | 2.0 | 0.00 | 0.29 | 0.13 | 99 | 1013.1 |
| 20260509134017 | 73 | 104 | 1.0 | 2.0 | 0.00 | 0.29 | 0.13 | 99 | 1013.1 |
| 20260509133017 | 73 | 66 | 0.0 | 1.0 | 0.00 | 0.29 | 0.13 | 99 | 1013.0 |
| 20260509132032 | 73 | 5 | 0.0 | 1.0 | 0.00 | 0.29 | 0.13 | 99 | 1012.9 |
| 20260509131113 | 73 | 355 | 1.0 | 3.0 | 0.00 | 0.29 | 0.13 | 99 | 1012.8 |
| 20260509130032 | 72 | 4 | 1.0 | 2.0 | 0.00 | 0.29 | 0.13 | 99 | 1012.7 |
| 20260509125018 | 72 | 344 | 0.0 | 1.0 | 0.00 | 0.29 | 0.13 | 99 | 1012.5 |
| 20260509124018 | 72 | 0.0 | 0.0 | 0.00 | 0.29 | 0.13 | 99 | 1012.3 | |
| 20260509123021 | 72 | 26 | 1.0 | 2.0 | 0.00 | 0.29 | 0.13 | 99 | 1012.1 |
| 20260509122038 | 72 | 355 | 1.0 | 2.0 | 0.00 | 0.29 | 0.13 | 99 | 1012.1 |
| 20260509121018 | 72 | 350 | 1.0 | 3.0 | 0.00 | 0.29 | 0.13 | 99 | 1011.9 |
| 20260509120019 | 72 | 0.0 | 0.0 | 0.00 | 0.29 | 0.13 | 99 | 1011.6 | |
| 20260509115018 | 72 | 0.0 | 0.0 | 0.00 | 0.29 | 0.13 | 99 | 1011.3 | |
| 20260509114019 | 72 | 334 | 0.0 | 1.0 | 0.00 | 0.29 | 0.13 | 99 | 1010.9 |
| 20260509113019 | 72 | 56 | 0.0 | 2.0 | 0.00 | 0.29 | 0.13 | 99 | 1010.5 |
| 20260509112019 | 72 | 132 | 1.0 | 3.0 | 0.00 | 0.29 | 0.13 | 99 | 1010.2 |
| 20260509111019 | 72 | 119 | 1.0 | 3.0 | 0.00 | 0.29 | 0.13 | 99 | 1010.2 |
| 20260509110020 | 72 | 184 | 2.0 | 4.0 | 0.00 | 0.29 | 0.13 | 99 | 1010.2 |
| 20260509105019 | 71 | 170 | 2.0 | 4.0 | 0.00 | 0.29 | 0.13 | 99 | 1009.9 |
| 20260509104020 | 71 | 142 | 2.0 | 5.0 | 0.00 | 0.29 | 0.13 | 99 | 1010.0 |
| 20260509103020 | 70 | 86 | 2.0 | 3.0 | 0.00 | 0.29 | 0.13 | 99 | 1009.9 |
| 20260509102020 | 69 | 194 | 0.0 | 2.0 | 0.00 | 0.29 | 0.13 | 99 | 1010.4 |
| 20260509101020 | 69 | 19 | 0.0 | 1.0 | 0.00 | 0.29 | 0.13 | 99 | 1010.5 |
| 20260509100020 | 69 | 14 | 0.0 | 1.0 | 0.00 | 0.29 | 0.13 | 98 | 1010.3 |
| 20260509095021 | 69 | 336 | 1.0 | 2.0 | 0.00 | 0.29 | 0.13 | 98 | 1010.4 |
| 20260509094021 | 68 | 158 | 1.0 | 3.0 | 0.00 | 0.29 | 0.13 | 98 | 1010.7 |
| 20260509093022 | 68 | 182 | 0.0 | 2.0 | 0.01 | 0.29 | 0.13 | 98 | 1011.0 |
| 20260509092021 | 68 | 156 | 1.0 | 4.0 | 0.01 | 0.29 | 0.13 | 98 | 1011.0 |
| 20260509091022 | 68 | 345 | 1.0 | 4.0 | 0.02 | 0.29 | 0.13 | 98 | 1011.6 |
| 20260509090024 | 68 | 349 | 1.0 | 3.0 | 0.02 | 0.29 | 0.13 | 98 | 1011.6 |
| 20260509085021 | 68 | 338 | 1.0 | 2.0 | 0.04 | 0.29 | 0.13 | 98 | 1012.1 |
| 20260509084022 | 69 | 340 | 1.0 | 2.0 | 0.05 | 0.29 | 0.12 | 98 | 1012.5 |
| 20260509083022 | 69 | 346 | 0.0 | 1.0 | 0.05 | 0.28 | 0.12 | 98 | 1012.7 |
| 20260509082022 | 69 | 0.0 | 0.0 | 0.05 | 0.27 | 0.11 | 98 | 1012.9 | |
| 20260509081023 | 69 | 0.0 | 0.0 | 0.05 | 0.27 | 0.11 | 97 | 1013.1 | |
| 20260509080023 | 69 | 338 | 1.0 | 2.0 | 0.05 | 0.27 | 0.11 | 97 | 1012.7 |